Weather History for Liberal, KS

Change the Weather History Date:

Saturday, November 17, 2012

  Actual Average Record
Temperature  
Mean Temperature 54 °F -  
Max Temperature 68 °F 58 °F 78 °F (1948)
Min Temperature 41 °F 31 °F 11 °F (1959)
Degree Days  
Heating Degree Days 10    
Growing Degree Days 4 (Base 50)    
Moisture  
Dew Point 37 °F    
Average Humidity 59    
Maximum Humidity 76    
Minimum Humidity 35    
Precipitation  
Precipitation 0.00 in - - ()
Sea Level Pressure  
Sea Level Pressure 30.14 in    
Wind  
Wind Speed 17 mph (South)    
Max Wind Speed 29 mph    
Max Gust Speed 36 mph    
Visibility 10 miles    
Events      
Averages and records for this station are not official NWS values.
T = Trace of Precipitation, MM = Missing Value Source: NWS Daily Summary

Daily Weather History Graph

Daily Weather History Graph

Search for Another Location

Airport:

Trip Planner

Search our weather history database for the weather conditions in past years. The results will help you decide how hot, cold, wet, or windy it might be!

Date:

Astronomy

Nov. 17, 2012 Rise Set
Actual Time 7:25 AM CST 5:32 PM CST
Civil Twilight 6:57 AM CST 6:00 PM CST
Nautical Twilight 6:25 AM CST 6:31 PM CST
Astronomical Twilight 5:54 AM CST 7:02 PM CST
Moon 11:11 AM CST (11/17) 9:44 PM CST (11/17)
Length of Visible Light 11h 02m
Length of Day
10h 07m
Waxing Crescent, 20% of the Moon is Illuminated
Nov 17
Waxing Crescent
Nov 20
First Quarter
Nov 28
Full
Dec 6
Last Quarter
Dec 13
New

Hourly Weather History & Observations

Time (CST) Temp. Windchill Dew Point Humidity Pressure Visibility Wind Dir Wind Speed Gust Speed Precip Events Conditions
12:15 AM 41.0 °F 34.3 °F 32.0 °F 70% 30.23 in 10.0 mi ESE 11.5 mph - N/A   Clear
12:35 AM 42.8 °F 35.8 °F 33.8 °F 70% 30.22 in 10.0 mi ESE 13.8 mph - N/A   Clear
12:55 AM 42.8 °F 36.2 °F 33.8 °F 70% 30.22 in 10.0 mi ESE 12.7 mph - N/A   Clear
1:15 AM 42.8 °F 35.8 °F 33.8 °F 70% 30.21 in 10.0 mi ESE 13.8 mph - N/A   Clear
1:35 AM 42.8 °F 35.8 °F 33.8 °F 70% 30.21 in 10.0 mi ESE 13.8 mph - N/A   Clear
1:55 AM 42.8 °F 35.4 °F 33.8 °F 70% 30.21 in 10.0 mi SE 15.0 mph - N/A   Clear
2:15 AM 42.8 °F 35.4 °F 33.8 °F 70% 30.20 in 10.0 mi SE 15.0 mph - N/A   Clear
2:35 AM 42.8 °F 35.4 °F 32.0 °F 66% 30.20 in 10.0 mi ESE 15.0 mph - N/A   Clear
2:55 AM 42.8 °F 35.4 °F 32.0 °F 66% 30.19 in 10.0 mi SE 15.0 mph - N/A   Clear
3:15 AM 42.8 °F 34.8 °F 32.0 °F 66% 30.18 in 10.0 mi SE 17.3 mph - N/A   Clear
3:35 AM 42.8 °F 34.0 °F 33.8 °F 70% 30.17 in 10.0 mi SE 20.7 mph - N/A   Clear
3:55 AM 44.6 °F 35.9 °F 33.8 °F 66% 30.17 in 10.0 mi SE 23.0 mph 28.8 mph N/A   Clear
4:15 AM 44.6 °F 36.9 °F 33.8 °F 66% 30.17 in 10.0 mi SE 18.4 mph 27.6 mph N/A   Clear
4:35 AM 42.8 °F 34.3 °F 33.8 °F 70% 30.16 in 10.0 mi SE 19.6 mph 26.5 mph N/A   Clear
4:55 AM 42.8 °F 34.5 °F 33.8 °F 70% 30.16 in 10.0 mi SE 18.4 mph - N/A   Clear
5:15 AM 42.8 °F 34.3 °F 33.8 °F 70% 30.15 in 10.0 mi SE 19.6 mph 24.2 mph N/A   Clear
5:35 AM 42.8 °F 34.0 °F 33.8 °F 70% 30.15 in 10.0 mi SE 20.7 mph 25.3 mph N/A   Clear
5:55 AM 42.8 °F 34.3 °F 33.8 °F 70% 30.15 in 10.0 mi SE 19.6 mph - N/A   Clear
6:15 AM 42.8 °F 34.8 °F 33.8 °F 70% 30.15 in 10.0 mi SE 17.3 mph - N/A   Clear
6:35 AM 42.8 °F 34.5 °F 33.8 °F 70% 30.16 in 10.0 mi SE 18.4 mph 24.2 mph N/A   Clear
6:55 AM 42.8 °F 34.5 °F 33.8 °F 70% 30.16 in 10.0 mi SE 18.4 mph - N/A   Clear
7:15 AM 42.8 °F 34.5 °F 33.8 °F 70% 30.16 in 10.0 mi SE 18.4 mph - N/A   Clear
7:35 AM 42.8 °F 34.8 °F 33.8 °F 70% 30.16 in 10.0 mi SSE 17.3 mph - N/A   Clear
7:55 AM 42.8 °F 35.1 °F 35.6 °F 76% 30.17 in 10.0 mi SSE 16.1 mph - N/A   Clear
8:15 AM 44.6 °F 38.8 °F 35.6 °F 71% 30.19 in 10.0 mi South 11.5 mph - N/A   Clear
8:35 AM 46.4 °F 40.1 °F 37.4 °F 71% 30.19 in 10.0 mi SSW 15.0 mph - N/A   Clear
8:55 AM 48.2 °F - 39.2 °F 71% 30.20 in 10.0 mi SSW 10.4 mph - N/A   Clear
9:15 AM 51.8 °F - 41.0 °F 67% 30.20 in 10.0 mi South 20.7 mph 25.3 mph N/A   Clear
9:35 AM 51.8 °F - 41.0 °F 67% 30.19 in 10.0 mi SSW 25.3 mph 33.4 mph N/A   Clear
9:55 AM 53.6 °F - 41.0 °F 62% 30.19 in 10.0 mi South 21.9 mph 29.9 mph N/A   Clear
10:15 AM 55.4 °F - 42.8 °F 63% 30.19 in 10.0 mi South 27.6 mph 32.2 mph N/A   Clear
10:35 AM 57.2 °F - 44.6 °F 63% 30.19 in 10.0 mi South 28.8 mph 35.7 mph N/A   Clear
10:55 AM 57.2 °F - 44.6 °F 63% 30.18 in 10.0 mi South 26.5 mph 34.5 mph N/A   Clear
11:15 AM 60.8 °F - 44.6 °F 55% 30.18 in 10.0 mi SSW 25.3 mph 31.1 mph N/A   Clear
11:35 AM 60.8 °F - 44.6 °F 55% 30.17 in 10.0 mi SSW 25.3 mph 33.4 mph N/A   Clear
11:55 AM 62.6 °F - 44.6 °F 52% 30.16 in 10.0 mi South 24.2 mph 31.1 mph N/A   Clear
12:15 PM 62.6 °F - 44.6 °F 52% 30.14 in 10.0 mi SSW 24.2 mph 28.8 mph N/A   Clear
12:35 PM 64.4 °F - 44.6 °F 49% 30.13 in 10.0 mi SSW 24.2 mph 33.4 mph N/A   Clear
12:55 PM 64.4 °F - 44.6 °F 49% 30.12 in 10.0 mi SSW 25.3 mph 32.2 mph N/A   Clear
1:15 PM 64.4 °F - 42.8 °F 45% 30.12 in 10.0 mi SSW 24.2 mph 28.8 mph N/A   Clear
1:35 PM 66.2 °F - 42.8 °F 43% 30.11 in 10.0 mi SSW 20.7 mph 28.8 mph N/A   Clear
1:55 PM 66.2 °F - 42.8 °F 43% 30.11 in 10.0 mi SSW 21.9 mph 26.5 mph N/A   Clear
2:15 PM 66.2 °F - 42.8 °F 43% 30.10 in 10.0 mi SSW 21.9 mph 26.5 mph N/A   Clear
2:35 PM 68.0 °F - 41.0 °F 37% 30.10 in 10.0 mi SSW 23.0 mph 27.6 mph N/A   Clear
2:55 PM 68.0 °F - 41.0 °F 37% 30.09 in 10.0 mi SSW 20.7 mph 26.5 mph N/A   Clear
3:15 PM 68.0 °F - 39.2 °F 35% 30.09 in 10.0 mi SSW 21.9 mph 27.6 mph N/A   Clear
3:35 PM 68.0 °F - 39.2 °F 35% 30.09 in 10.0 mi SSW 19.6 mph - N/A   Clear
3:55 PM 66.2 °F - 39.2 °F 37% 30.09 in 10.0 mi SSW 17.3 mph 24.2 mph N/A   Clear
4:15 PM 66.2 °F - 37.4 °F 35% 30.10 in 10.0 mi SSW 19.6 mph - N/A   Clear
4:35 PM 64.4 °F - 37.4 °F 37% 30.10 in 10.0 mi SSW 18.4 mph 24.2 mph N/A   Clear
4:55 PM 62.6 °F - 37.4 °F 39% 30.09 in 10.0 mi SSW 12.7 mph - N/A   Clear
5:15 PM 60.8 °F - 35.6 °F 39% 30.10 in 10.0 mi SSW 10.4 mph - N/A   Clear
5:35 PM 57.2 °F - 35.6 °F 44% 30.09 in 10.0 mi South 10.4 mph - N/A   Clear
5:55 PM 53.6 °F - 33.8 °F 47% 30.09 in 10.0 mi South 10.4 mph - N/A   Clear
6:15 PM 51.8 °F - 33.8 °F 50% 30.10 in 10.0 mi South 9.2 mph - N/A   Clear
6:35 PM 53.6 °F - 37.4 °F 54% 30.10 in 10.0 mi South 15.0 mph - N/A   Clear
6:55 PM 55.4 °F - 37.4 °F 51% 30.11 in 10.0 mi South 13.8 mph - N/A   Clear
7:15 PM 53.6 °F - 37.4 °F 54% 30.11 in 10.0 mi South 12.7 mph - N/A   Clear
7:35 PM 53.6 °F - 37.4 °F 54% 30.11 in 10.0 mi South 13.8 mph - N/A   Clear
7:55 PM 53.6 °F - 37.4 °F 54% 30.10 in 10.0 mi South 16.1 mph - N/A   Clear
8:15 PM 53.6 °F - 37.4 °F 54% 30.11 in 10.0 mi South 13.8 mph - N/A   Clear
8:35 PM 51.8 °F - 37.4 °F 58% 30.11 in 10.0 mi South 12.7 mph - N/A   Clear
8:55 PM 51.8 °F - 35.6 °F 54% 30.12 in 10.0 mi South 13.8 mph - N/A   Clear
9:15 PM 50.0 °F - 37.4 °F 62% 30.12 in 10.0 mi South 11.5 mph - N/A   Clear
9:35 PM 48.2 °F - 35.6 °F 62% 30.12 in 10.0 mi South 10.4 mph - N/A   Clear
9:55 PM 46.4 °F 41.9 °F 33.8 °F 62% 30.12 in 10.0 mi South 9.2 mph - N/A   Clear
10:15 PM 46.4 °F 41.1 °F 35.6 °F 66% 30.12 in 10.0 mi South 11.5 mph - N/A   Clear
10:35 PM 48.2 °F - 37.4 °F 66% 30.11 in 10.0 mi South 12.7 mph - N/A   Clear
10:55 PM 48.2 °F - 37.4 °F 66% 30.11 in 10.0 mi South 12.7 mph - N/A   Clear
11:15 PM 48.2 °F - 37.4 °F 66% 30.11 in 10.0 mi South 11.5 mph - N/A   Clear
11:35 PM 48.2 °F - 37.4 °F 66% 30.11 in 10.0 mi South 10.4 mph - N/A   Clear
11:55 PM 46.4 °F 41.1 °F 37.4 °F 71% 30.10 in 10.0 mi SSE 11.5 mph - N/A   Clear